Location: Corsier
(46.2637°N, 6.2238°E)
Time: 01:10:04
(UTC+00:00)

Daily predictions for brighter satellites

Satellite Brightness Start Highest point End
(mag) Time Altitude Azimuth Time Altitude Azimuth Time Altitude Azimuth
STARLINK-1303 4.1 00:05:53 39° ESE 00:05:53 39° ESE 00:08:47 10° ENE
STARLINK-66 3.6 00:07:08 46° ENE 00:07:08 46° ENE 00:09:33 10° ENE
Cosmos 1570 Rocket 4.1 00:04:53 42° S 00:06:30 64° ESE 00:11:44 10° NNE
Cosmos 1763 Rocket 3.4 00:05:57 43° SSW 00:07:38 79° WNW 00:12:44 10° NNE
Cosmos 1709 Rocket 4.0 00:05:05 36° SSE 00:07:41 70° E 00:13:51 10° NNE
STARLINK-1316 4.4 00:09:23 28° E 00:09:23 28° E 00:11:09 10° ENE
STARLINK-1312 3.9 00:09:13 43° ESE 00:09:13 43° ESE 00:12:17 10° ENE
Cosmos 2227 Rocket 2.7 00:03:26 10° NW 00:08:47 43° WSW 00:10:10 36° SW
Landsat 4 4.4 00:05:16 10° N 00:08:48 42° WNW 00:09:24 38° W
STARLINK-1257 4.3 00:10:14 29° E 00:10:14 29° E 00:12:03 10° ENE
STARLINK-1256 4.3 00:11:11 30° E 00:11:11 30° E 00:13:01 10° ENE
STARLINK-1213 4.3 00:12:02 31° E 00:12:02 31° E 00:13:53 10° ENE
STARLINK-1263 4.2 00:12:53 31° E 00:12:53 31° E 00:14:47 10° ENE
STARLINK-1259 4.2 00:13:47 32° E 00:13:47 32° E 00:15:44 10° ENE
Cosmos 2084 Rocket 3.6 00:08:30 10° NW 00:12:59 79° NE 00:14:58 33° SE
STARLINK-1265 4.1 00:14:09 33° E 00:14:09 33° E 00:16:09 10° ENE
Cosmos 1356 Rocket 4.5 00:09:39 10° NNW 00:13:26 32° W 00:13:55 31° WSW
STARLINK-1285 4.1 00:14:38 33° E 00:14:38 33° E 00:16:37 10° ENE
STARLINK-1296 4.0 00:16:22 35° E 00:16:22 35° E 00:18:25 10° ENE
SL-16 R/B 3.8 00:10:40 10° SE 00:16:12 36° ENE 00:21:47 10° N
STARLINK-1260 4.0 00:17:14 36° E 00:17:14 36° E 00:19:20 10° ENE
Cosmos 1758 Rocket 3.6 00:15:28 50° SSE 00:16:30 73° E 00:20:56 10° NNE
STARLINK-1318 3.9 00:18:06 37° E 00:18:06 37° E 00:20:14 10° ENE
STARLINK-75 3.2 00:18:02 61° ENE 00:18:02 61° ENE 00:20:49 10° ENE
STARLINK-1275 3.9 00:18:59 38° E 00:18:59 38° E 00:21:09 10° ENE
STARLINK-1309 3.8 00:19:50 39° E 00:19:50 39° E 00:22:02 10° ENE
STARLINK-1282 3.8 00:20:42 41° E 00:20:42 41° E 00:22:56 10° ENE
STARLINK-1283 3.5 00:20:03 61° S 00:20:24 65° SE 00:24:31 10° ENE
STARLINK-1313 3.5 00:21:38 48° ENE 00:21:38 48° ENE 00:24:03 10° ENE
STARLINK-80 3.3 00:21:06 63° SE 00:21:06 63° SE 00:24:52 10° ENE
IRAS Rocket 4.5 00:18:06 26° SE 00:21:17 65° ENE 00:26:46 10° N
STARLINK-1279 3.5 00:22:32 50° ENE 00:22:32 50° ENE 00:24:59 10° ENE
STARLINK-1298 3.6 00:23:16 44° E 00:23:16 44° E 00:25:36 10° ENE
Nadezhda 1 Rocket 4.4 00:16:57 10° NNW 00:22:55 49° W 00:25:28 32° SW
CZ-4 R/B 3.9 00:18:39 10° N 00:23:21 67° WNW 00:24:50 41° SW
STARLINK-1293 3.6 00:24:09 46° E 00:24:09 46° E 00:26:33 10° ENE
STARLINK-1255 3.5 00:25:54 49° E 00:25:54 49° E 00:28:21 10° ENE
SL-16 R/B 3.9 00:22:44 16° SE 00:25:15 21° E 00:29:23 10° NE
Cosmos 2208 Rocket 4.0 00:23:37 41° S 00:25:29 77° ESE 00:30:53 10° NNE
STARLINK-22 3.2 00:26:16 61° E 00:26:16 61° E 00:29:02 10° ENE
STARLINK-1297 3.3 00:26:32 62° SE 00:26:32 62° SE 00:29:58 10° ENE
STARLINK 1040 4.2 00:26:21 29° NNW 00:26:32 29° NNW 00:28:51 10° NE
STARLINK-1311 3.4 00:28:27 51° ENE 00:28:27 51° ENE 00:30:46 10° ENE
Cosmos 2285 Rocket 4.0 00:22:29 10° NNW 00:28:50 74° WSW 00:31:55 32° S
USA 81 4.0 00:30:17 40° SSW 00:32:14 78° W 00:37:33 10° N
CZ-2D R/B 3.4 00:27:49 10° NE 00:32:22 29° E 00:35:02 19° SE
Cosmos-2242 2.9 00:29:00 10° N 00:33:16 87° W 00:34:23 49° S
Meteor 2-10 Rocket 3.7 00:28:43 10° NNW 00:33:44 56° W 00:35:15 40° SSW
USA 215 3.2 00:28:07 13° SE 00:34:02 67° SW 00:40:34 10° NW
Cosmos 1953 Rocket 3.8 00:33:32 41° SSE 00:34:53 63° E 00:39:15 10° NNE
STARLINK-42 3.0 00:36:26 66° NW 00:36:35 68° NNW 00:39:42 10° ENE
BREEZE-M R/B 3.6 00:30:29 10° W 00:36:45 58° NNW 00:40:01 10° ENE
Meteor 1-21 Rocket 4.5 00:34:27 34° SW 00:36:53 60° WNW 00:42:38 10° N
STARLINK-1029 3.7 00:39:04 40° ESE 00:39:04 40° ESE 00:41:30 10° ENE
STARLINK-34 3.2 00:40:01 54° E 00:40:01 54° E 00:42:35 10° ENE
STARLINK-60 3.8 00:37:07 10° NW 00:40:13 49° NNE 00:43:20 10° E
STARLINK-41 3.0 00:40:11 65° NW 00:40:19 66° NNW 00:43:22 10° NE
GP-B 3.7 00:36:45 10° NNE 00:41:05 49° E 00:42:58 29° SE
STARLINK-1272 3.0 00:42:02 68° SW 00:42:26 87° SSE 00:46:00 10° ENE
Cosmos 540 Rocket 3.4 00:41:07 38° SSW 00:43:08 77° WNW 00:48:17 10° NNE
STARLINK-62 3.0 00:43:45 61° E 00:43:45 61° E 00:46:25 10° ENE
STARLINK-1307 3.2 00:46:48 54° WSW 00:47:35 90° WNW 00:51:20 10° ENE
Cosmos 2360 Rocket 4.4 00:45:05 10° SE 00:47:44 14° E 00:50:23 10° ENE
Helios 1B rocket 3.4 00:45:16 10° N 00:49:05 37° WNW 00:50:24 29° WSW
STARLINK-1290 3.2 00:50:11 49° WSW 00:51:06 86° NNW 00:54:51 10° ENE
Cosmos 1980 Rocket 2.2 00:51:50 32° SW 00:54:31 75° WNW 01:00:13 10° NNE
Cosmos 2074 Rocket 4.3 00:51:22 25° SSE 00:55:04 65° E 01:01:17 10° NNE
STARLINK-1305 4.5 00:57:04 32° SSE 00:57:30 33° SE 01:01:14 10° ENE
Meteor 1-29 3.8 00:54:33 10° N 00:57:40 36° WNW 00:58:11 34° W
STARLINK-1306 4.4 00:57:24 34° SSE 00:57:56 35° SE 01:01:47 10° ENE
STARLINK-1317 3.5 00:56:33 35° WSW 00:58:05 75° NNW 01:02:01 10° ENE
Cosmos 1455 3.4 00:56:40 10° NNW 00:59:49 26° W 01:00:05 26° W
Cosmos 1328 4.3 00:59:35 38° WSW 01:00:36 48° WNW 01:04:30 10° N
STARLINK-55 4.0 01:00:33 24° W 01:02:03 42° NNW 01:05:08 10° NE
STARLINK-1274 3.4 01:00:55 38° W 01:02:07 69° NNW 01:05:40 10° ENE
STARLINK-1262 4.4 01:01:53 34° SSE 01:02:29 35° SE 01:06:17 10° ENE
STARLINK-1291 3.5 01:04:15 32° WSW 01:05:50 68° NNW 01:09:33 10° ENE
Meteor 1-11 4.1 01:03:54 31° SSW 01:06:43 85° W 01:12:20 10° N
Cosmos 1703 4.1 01:05:53 31° WSW 01:06:55 37° WNW 01:10:35 10° N
STARLINK-1300 4.3 01:06:40 35° SSE 01:07:25 38° SE 01:11:18 10° ENE
Lacrosse 4 Rocket 3.3 01:05:21 10° WNW 01:07:20 15° W 01:07:20 15° W
STARLINK-1264 3.6 01:07:26 29° W 01:09:09 65° NNW 01:12:52 10° ENE
Cosmos 1825 Rocket 4.4 01:08:39 29° WSW 01:10:07 37° WNW 01:14:12 10° N
ADEOS II 3.7 01:06:02 10° NE 01:10:24 26° E 01:14:39 10° SSE
Cosmos 2263 Rocket 2.1 01:05:26 10° NNW 01:11:05 88° ENE 01:15:58 14° SSE
STARLINK-1295 4.2 01:11:26 36° S 01:12:22 42° SE 01:16:17 10° ENE
STARLINK-1267 3.7 01:10:39 27° W 01:12:31 62° NNW 01:16:14 10° NE
Timation 1 Rocket 4.4 01:06:41 10° NW 01:12:34 61° WSW 01:16:19 23° S
NOSS 2-1 (C) 3.5 01:12:04 38° SSE 01:12:45 45° ESE 01:16:10 10° NE
STARLINK-29 4.0 01:09:53 10° NW 01:13:00 47° NNE 01:16:07 10° E
STARLINK-28 4.4 01:11:34 17° W 01:13:38 36° NNW 01:16:39 10° NE
Cosmos 2297 Rocket 4.3 01:13:01 10° W 01:14:06 11° W 01:14:46 10° WSW
UNK 3.7 01:11:40 24° SSE 01:14:26 84° ENE 01:19:02 10° NNW
SL-4 R/B 2.3 01:09:45 10° WNW 01:14:38 88° SSW 01:19:20 10° ESE
STARLINK-64 3.2 01:14:12 48° SSW 01:15:02 69° SE 01:18:37 10° ENE
USA 229 DEB 3.9 01:09:22 10° NW 01:16:41 90° SW 01:24:20 10° SE
USA 229 3.9 01:09:28 10° NW 01:16:47 90° ENE 01:24:26 10° SE
STARLINK-1287 4.1 01:16:12 36° S 01:17:19 45° SE 01:21:18 10° ENE
NOSS 3-1 (C) 4.0 01:10:01 10° NW 01:17:34 84° SW 01:26:15 10° SSE
NOSS 2-1 (D) 3.3 01:16:50 40° S 01:17:38 52° SE 01:21:07 10° NE
Cosmos 372 Rocket 4.4 01:13:53 10° NW 01:18:45 43° WSW 01:20:47 29° SSW
STARLINK-1207 3.9 01:17:09 23° W 01:19:18 57° NNW 01:23:00 10° NE
NPP 3.9 01:14:11 10° NNE 01:19:34 66° ESE 01:22:54 23° S
Cosmos 2184 Rocket 3.9 01:16:27 26° S 01:20:11 87° W 01:26:24 10° N
CZ-4C R/B 3.8 01:17:17 10° W 01:22:00 30° NNW 01:27:32 10° NNE
STARLINK-1266 3.9 01:20:25 21° W 01:22:42 54° NNW 01:26:24 10° NE
BREEZE-M DEB (TANK) 1.4 01:23:14 84° NW 01:23:15 84° NNW 01:25:48 10° ENE
STARLINK-33 4.4 01:21:41 15° W 01:23:51 34° NNW 01:26:45 10° NE
Cosmos 1892 4.0 01:21:53 18° SSE 01:24:08 34° E 01:27:36 10° NNE
NOSS 3-1 (A) 4.2 01:18:12 10° NW 01:25:43 80° NE 01:34:23 10° SE
STARLINK-1299 3.8 01:24:06 34° SSW 01:25:46 61° SE 01:29:58 10° ENE
STARLINK-1284 4.0 01:23:40 19° W 01:26:08 52° NNW 01:29:49 10° NE
STARLINK-1302 3.8 01:25:46 34° SSW 01:27:14 54° SE 01:31:18 10° ENE
BREEZE-M DEB (TANK) 2.5 01:25:32 10° WNW 01:27:55 39° N 01:30:17 10° ENE
STARLINK-1258 4.1 01:26:59 18° W 01:29:34 50° NNW 01:33:14 10° NE
Cosmos 1869 3.3 01:26:43 10° N 01:30:35 74° E 01:33:00 22° SSE
Cosmos 2150 Rocket 4.3 01:26:30 10° NNW 01:31:23 45° WSW 01:33:54 26° SSW
STARLINK-1273 3.8 01:30:32 32° SSW 01:32:11 58° SE 01:36:17 10° ENE
STARLINK-1292 4.2 01:30:17 16° W 01:33:01 48° NNW 01:36:40 10° NE
Cosmos 2322 Rocket 2.5 01:29:42 22° S 01:33:13 59° ESE 01:38:44 10° NNE
STARLINK-1288 3.7 01:35:19 30° SW 01:37:09 63° SE 01:41:16 10° ENE
STARLINK-61 3.9 01:35:51 31° SSW 01:37:17 47° SE 01:41:04 10° ENE
STARLINK-1268 4.3 01:36:30 15° W 01:38:45 35° NNW 01:41:38 10° NE
STARLINK-1289 4.3 01:36:51 14° W 01:39:53 45° NNW 01:43:32 10° NE
Cosmos 1697 Rocket 4.5 01:36:41 10° W 01:41:06 23° NW 01:45:33 10° N
Resurs 1-4 Rocket 2.2 01:36:12 10° N 01:41:30 71° WNW 01:44:54 23° SSW
STARLINK-1301 4.4 01:38:34 12° W 01:41:53 44° NNW 01:45:36 10° NE
STARLINK-1308 3.6 01:40:08 28° SW 01:42:10 69° SE 01:46:18 10° ENE
Cosmos 1076 Rocket 3.9 01:39:51 19° S 01:42:51 60° E 01:47:10 10° NNE
STARLINK-1303 4.4 01:40:12 13° W 01:43:24 43° NNW 01:47:01 10° NE
Cosmos 1400 Rocket 4.1 01:40:06 10° NW 01:43:34 26° W 01:44:45 22° WSW
STARLINK-1316 4.4 01:41:30 12° W 01:44:01 34° NNW 01:46:55 10° NE
STARLINK-1257 4.4 01:42:21 12° W 01:44:55 33° NNW 01:47:49 10° NE
Cosmos 1125 Rocket 3.6 01:40:01 10° NNW 01:45:05 55° WSW 01:48:54 17° S
STARLINK-1256 4.4 01:43:18 12° W 01:45:53 33° NNW 01:48:46 10° NE
STARLINK-58 4.1 01:44:00 16° W 01:46:17 40° NNW 01:49:19 10° NE
STARLINK-1213 4.5 01:44:09 12° W 01:46:47 33° NNW 01:49:39 10° NE
STARLINK-1312 4.5 01:43:32 11° W 01:46:54 42° NNW 01:50:31 10° NE
Meteor 2-17 Rocket 4.5 01:42:54 21° SSW 01:47:07 73° W 01:53:15 10° N
STARLINK-1263 4.5 01:45:01 11° W 01:47:40 32° NNW 01:50:33 10° NE
STARLINK-52 3.1 01:45:10 10° WNW 01:48:23 76° NNE 01:51:36 10° ESE
STARLINK-1259 4.5 01:45:54 11° W 01:48:36 32° NNW 01:51:29 10° NE
STARLINK-1304 3.6 01:49:41 24° SW 01:52:06 79° SE 01:56:15 10° ENE
Cosmos 1408 3.5 01:49:31 15° SSE 01:52:19 43° E 01:55:50 10° NNE
Cosmos 2154 Rocket 4.0 01:49:51 19° SSW 01:54:31 75° W 02:00:46 10° N
GEOS 3 Rocket 3.5 01:51:36 10° SE 01:56:47 76° SW 02:02:06 10° NW
STARLINK-48 3.9 01:53:48 15° WSW 01:56:51 57° NNW 02:00:41 10° NE
STARLINK-1278 3.7 01:55:21 20° WSW 01:58:16 85° NNW 02:02:32 10° ENE
Cosmos 1825 3.5 01:55:31 10° SSE 01:58:56 35° E 02:02:24 10° NNE
SL-16 R/B 3.0 01:55:29 18° SSW 01:59:43 43° W 02:05:35 10° NNW
STARLINK-1280 3.7 01:57:08 19° WSW 02:00:07 84° NNW 02:04:24 10° ENE
STARLINK-69 4.4 01:59:20 21° S 02:00:59 31° SE 02:04:13 10° ENE
Iridium 2 4.3 01:57:41 10° NNW 02:01:14 40° W 02:03:12 22° SW
SL-08 R/B 3.8 01:57:00 10° SSE 02:01:33 61° ENE 02:06:06 10° N
STARLINK-21 4.4 02:00:55 20° S 02:02:38 30° SE 02:05:51 10° ENE
Meteor 2-2 Rocket 4.5 01:57:27 10° NNW 02:03:23 60° W 02:08:42 13° S
STARLINK-45 4.2 02:02:35 21° S 02:04:23 34° SE 02:07:42 10° ENE
IRS-P3 4.4 01:59:39 10° NNE 02:04:59 68° ESE 02:09:52 12° S
Cosmos 1844 Rocket 3.4 02:00:03 10° NNW 02:05:35 56° ENE 02:11:03 10° SE
NOSS 2-1 (E) 3.4 02:04:58 20° WSW 02:07:05 54° NW 02:10:45 10° NNE
STARLINK-76 4.3 02:05:36 20° S 02:07:30 33° SE 02:10:48 10° ENE
STARLINK-70 4.2 02:05:59 20° SSW 02:07:56 36° SE 02:11:20 10° ENE
STARLINK-1286 3.7 02:05:37 17° WSW 02:08:45 81° NNW 02:12:57 10° ENE
SL-16 R/B 2.4 02:04:36 18° SW 02:08:49 65° WNW 02:14:29 10° NNE
STARLINK-23 4.2 02:07:10 20° SSW 02:09:07 34° SE 02:12:27 10° ENE
STARLINK-32 4.2 02:08:37 20° SSW 02:10:34 35° SE 02:13:52 10° ENE
IRIDIUM 104 4.3 02:07:39 15° SSW 02:11:57 70° W 02:17:11 10° N
STARLINK-1281 3.7 02:08:48 16° WSW 02:12:00 80° NNW 02:16:10 10° ENE
STARLINK-40 4.1 02:10:18 19° SSW 02:12:21 37° SE 02:15:43 10° ENE
CZ-2D R/B 2.8 02:07:40 10° N 02:12:31 40° WNW 02:16:21 15° SW
Cosmos 2221 3.3 02:09:34 10° NNW 02:13:32 34° W 02:16:17 17° SSW
STARLINK-44 4.1 02:11:49 19° SSW 02:13:55 38° SE 02:17:19 10° ENE
STARLINK-1029 4.4 02:11:30 10° W 02:14:27 34° NNW 02:17:24 10° NE
STARLINK-37 3.9 02:13:33 19° SSW 02:15:44 42° SE 02:19:11 10° ENE
Cosmos 773 Rocket 4.5 02:11:02 12° S 02:15:49 59° ESE 02:21:02 10° NNE
STARLINK-60 3.8 02:13:25 10° WNW 02:16:10 27° SW 02:18:55 10° SSE
STARLINK-1310 3.7 02:13:35 15° WSW 02:16:59 75° NNW 02:21:09 10° ENE
STARLINK-36 4.0 02:14:56 19° SSW 02:17:09 40° SE 02:20:35 10° ENE
FALCON 9 DEB 3.2 02:14:15 10° WNW 02:17:43 84° NNE 02:21:10 10° ESE
USA 215 4.5 02:15:22 15° SSW 02:17:51 18° WSW 02:22:11 10° W
Nadezhda 3 Rocket 4.4 02:12:53 10° NNW 02:18:55 48° W 02:24:39 11° SSW
Cosmos 1315 Rocket 3.9 02:15:55 10° NW 02:19:15 27° W 02:21:25 17° SW
STARLINK-63 3.8 02:18:10 18° SSW 02:20:31 45° SE 02:23:59 10° ENE
STARLINK-35 3.9 02:19:32 18° SSW 02:21:52 43° SE 02:25:17 10° ENE
STARLINK-1319 3.8 02:18:21 13° WSW 02:21:57 70° NNW 02:26:06 10° ENE
CBERS-1 4.2 02:17:11 10° N 02:22:15 62° WNW 02:26:39 14° SSW
STARLINK-1375 4.5 02:18:46 10° NW 02:22:42 51° NNE 02:26:38 10° E
STARLINK-51 3.8 02:21:14 17° SSW 02:23:40 46° SE 02:27:08 10° ENE
Cosmos 2366 rocket 4.4 02:18:52 10° S 02:25:01 65° E 02:31:17 10° NNE
STARLINK-30 3.8 02:22:49 17° SSW 02:25:20 47° SE 02:28:51 10° ENE
STARLINK-72 3.7 02:24:13 17° SSW 02:26:43 48° SE 02:30:11 10° ENE
STARLINK-1277 3.9 02:23:08 12° WSW 02:26:57 66° NNW 02:31:05 10° ENE
STARLINK-1350 4.4 02:23:07 10° NW 02:27:04 53° NNE 02:31:00 10° ESE
Shenzhou-11 Module 2.1 02:26:47 20° WSW 02:28:01 34° S 02:30:16 10° ESE
STARLINK-1021 4.4 02:26:14 15° SSW 02:29:22 41° SE 02:33:16 10° ENE
STARLINK-59 3.6 02:27:25 16° SW 02:30:03 54° SE 02:33:33 10° ENE
Cosmos 2058 3.7 02:27:00 15° SW 02:30:07 39° WNW 02:34:06 10° N
Cosmos 2360 Rocket 2.2 02:25:44 13° SSW 02:30:50 88° ESE 02:36:31 10° NNE
STARLINK-1352 4.3 02:27:17 10° NW 02:31:15 56° NNE 02:35:11 10° ESE
STARLINK-1010 4.3 02:28:17 14° SSW 02:31:36 45° SE 02:35:39 10° ENE
STARLINK-56 3.6 02:29:04 16° SW 02:31:49 53° SE 02:35:22 10° ENE
STARLINK-1276 4.0 02:27:56 11° WSW 02:31:58 62° NNW 02:36:05 10° ENE
STARLINK-73 3.6 02:30:38 15° SW 02:33:26 55° SE 02:37:00 10° ENE
STARLINK-1019 4.3 02:30:59 14° SSW 02:34:17 44° SE 02:38:15 10° ENE
Cosmos 1328 Rocket 4.5 02:30:03 10° N 02:34:21 50° ENE 02:38:35 10° SSE
STARLINK-38 3.5 02:32:12 15° SW 02:35:04 57° SE 02:38:39 10° ENE
STARLINK-1368 4.2 02:31:58 10° NW 02:35:58 59° NNE 02:39:56 10° ESE
STARLINK-65 3.5 02:33:46 14° SW 02:36:42 59° SE 02:40:17 10° ENE
STARLINK-1305 4.1 02:32:50 10° WSW 02:36:56 59° NNW 02:41:02 10° NE
STARLINK-68 3.4 02:34:23 14° SW 02:37:23 64° SE 02:41:01 10° ENE
STARLINK-1306 4.2 02:33:28 10° WSW 02:37:37 57° NNW 02:41:46 10° NE
STARLINK-53 3.4 02:35:24 14° SW 02:38:24 63° SE 02:42:00 10° ENE
STARLINK-1012 4.2 02:35:47 13° SSW 02:39:16 48° SE 02:43:16 10° ENE
Cosmos 1980 Rocket 4.3 02:36:02 10° W 02:39:34 17° NW 02:43:06 10° N
STARLINK-1369 4.1 02:36:24 10° WNW 02:40:25 63° NNE 02:44:25 10° ESE
STARLINK-50 3.6 02:37:26 13° SW 02:40:41 61° SE 02:44:27 10° ENE
STARLINK-1262 4.2 02:37:52 10° WSW 02:41:57 56° NNW 02:46:03 10° NE
SL-24 DEB 4.2 02:37:37 10° N 02:42:15 82° W 02:46:50 10° S
Cosmos 2333 Rocket 3.1 02:39:05 10° S 02:44:25 45° ESE 02:49:48 10° NE
STARLINK-1372 4.0 02:40:35 10° WNW 02:44:33 66° NNE 02:48:30 10° ESE
STARLINK-71 3.6 02:41:45 12° SW 02:45:25 69° SE 02:49:26 10° ENE
Meteor 1-28 Rocket 3.2 02:42:20 10° S 02:46:03 66° W 02:49:47 10° NNW
STARLINK-1300 4.3 02:42:53 10° W 02:46:57 53° NNW 02:51:01 10° NE
Landsat 5 4.1 02:42:53 10° SSE 02:47:21 68° ENE 02:51:46 10° N
Cosmos 2219 Rocket 3.1 02:43:15 10° S 02:48:32 45° ESE 02:53:50 10° NE
STARLINK-29 3.8 02:46:13 10° WNW 02:49:01 28° SW 02:51:47 10° SSE
STARLINK-1026 3.9 02:45:20 11° SW 02:49:10 56° SE 02:53:15 10° ENE
STARLINK-1378 3.9 02:45:18 10° WNW 02:49:19 70° NNE 02:53:20 10° ESE
Cosmos 1727 Rocket 4.2 02:43:22 10° N 02:49:35 77° E 02:55:45 10° SSE
Cosmos 2322 4.0 02:44:11 10° SSW 02:49:51 70° ESE 02:55:34 10° NNE
ADEOS II 2.6 02:45:17 10° N 02:50:18 46° WNW 02:55:18 10° SW
STARLINK-1295 4.3 02:47:53 10° W 02:51:55 50° NNW 02:55:59 10° NE
Cosmos 864 Rocket 4.5 02:46:34 10° S 02:52:41 83° W 02:58:53 10° N
IRS-1D 4.5 02:48:15 10° N 02:53:00 35° WNW 02:57:39 10° SW
STARLINK-1379 3.8 02:49:47 10° WNW 02:53:50 74° NNE 02:57:52 10° ESE
SL-4 R/B 3.4 02:50:09 10° W 02:53:53 23° SW 02:57:30 10° S
IDEFIX/ARIANE 42P 2.9 02:48:41 10° NNE 02:53:56 68° ESE 02:59:10 10° S
Cosmos 2263 Rocket 3.9 02:51:19 10° WNW 02:54:09 14° W 02:56:58 10° SW
STARLINK-1013 3.9 02:50:08 10° SW 02:54:09 61° SE 02:58:15 10° ENE
Cosmos 1606 2.6 02:51:11 10° N 02:54:58 86° W 02:58:45 10° S
ERS-2 2.2 02:52:03 10° S 02:55:39 58° WSW 02:59:17 10° NNW
STARLINK-1287 4.4 02:52:54 10° W 02:56:55 48° NNW 03:00:57 10° NE
STARLINK-25 3.1 02:53:40 10° SW 02:57:08 85° SSE 03:00:36 10° ENE
STARLINK-1329 3.7 02:53:37 10° WNW 02:57:40 78° NNE 03:01:43 10° ESE
ATLAS 5 CENTAUR R/B 3.7 02:55:58 10° SSE 02:58:53 19° ESE 03:01:57 10° ENE
STARLINK-1009 3.8 02:55:01 10° SW 02:59:07 66° SE 03:03:14 10° ENE
Cosmos 2333 4.3 02:53:41 10° SSW 02:59:16 78° ESE 03:04:55 10° NNE
BREEZE-M R/B 2.0 02:56:12 10° WNW 02:59:33 85° NNE 03:01:58 10° ESE
ARIANE 5 R/B 2.7 02:54:37 10° N 02:59:33 60° WNW 03:04:27 10° SSW
Cosmos 1892 4.5 02:57:17 10° WSW 02:59:57 18° WNW 03:02:38 10° NNW
STARLINK-1362 3.7 02:58:09 10° WNW 03:02:13 83° NNE 03:06:16 10° ESE
STARLINK-1320 2.8 03:00:23 10° WNW 03:03:29 69° SW 03:06:36 10° SE
STARLINK-1322 2.8 03:00:44 10° WNW 03:03:51 69° SSW 03:06:57 10° SE
STARLINK-1015 3.7 02:59:58 10° SW 03:04:04 71° SSE 03:08:13 10° ENE
STARLINK-1324 2.8 03:01:03 10° WNW 03:04:10 68° SSW 03:07:16 10° SE
CZ-2C R/B 2.9 03:00:26 10° NNE 03:04:13 77° ESE 03:08:02 10° S
STARLINK-1294 2.8 03:01:22 10° WNW 03:04:29 68° SSW 03:07:36 10° SE
CZ-2D R/B 3.6 03:00:24 10° N 03:04:39 69° WNW 03:08:58 10° SSW
STARLINK-1261 2.8 03:01:45 10° WNW 03:04:51 67° SW 03:07:57 10° SE
STARLINK-1325 2.8 03:02:06 10° WNW 03:05:12 67° SW 03:08:17 10° SE
STARLINK-1333 2.8 03:02:28 10° WNW 03:05:34 66° SW 03:08:40 10° SE
STARLINK-1334 2.8 03:02:45 10° WNW 03:05:51 66° SW 03:08:57 10° SE
STARLINK-1326 2.8 03:03:05 10° WNW 03:06:10 65° SW 03:09:15 10° SE
STARLINK-1323 2.8 03:03:27 10° WNW 03:06:34 65° SSW 03:09:39 10° SE
Cosmos 1408 Rocket 3.6 03:02:19 10° S 03:06:37 81° E 03:10:57 10° N
STARLINK-1373 3.6 03:02:38 10° WNW 03:06:41 87° NE 03:10:42 10° ESE
STARLINK-1349 2.8 03:03:45 10° WNW 03:06:51 64° SW 03:09:56 10° SE
STARLINK-1336 2.8 03:04:05 10° WNW 03:07:11 64° SW 03:10:16 10° SE
STARLINK-1331 2.8 03:04:28 10° WNW 03:07:34 64° SSW 03:10:39 10° SE
STARLINK-1344 2.8 03:04:46 10° WNW 03:07:52 63° SW 03:10:56 10° SE
STARLINK-1343 2.8 03:05:09 10° WNW 03:08:15 63° SW 03:11:19 10° SE
STARLINK-24 3.6 03:04:31 10° WSW 03:08:31 83° NNW 03:12:33 10° ENE
STARLINK-1346 2.9 03:05:25 10° WNW 03:08:33 63° SW 03:11:40 10° SE
STARLINK-1328 2.8 03:05:52 10° WNW 03:08:58 62° SW 03:12:02 10° SE
STARLINK-1016 3.7 03:04:55 10° SW 03:09:03 77° SE 03:13:12 10° ENE
STARLINK-1354 2.8 03:06:10 10° WNW 03:09:15 61° SW 03:12:20 10° SE
Cosmos 1844 3.8 03:03:35 10° NNW 03:09:19 62° WSW 03:15:00 10° S
STARLINK-1347 2.8 03:06:27 10° WNW 03:09:32 61° SW 03:12:36 10° SE
STARLINK-1357 2.9 03:06:53 10° WNW 03:09:58 60° SW 03:13:03 10° SE
